Kalamazoo, MI

8:10 PM EDT on October 20, 2017 (GMT -0400)
Kalamazoo-Battle Creek International

Weather History for KAZO - December, 2013

Change the Weather History Date:

Wednesday, December 4, 2013

  Actual Average Record
Temperature  
Mean Temperature 49 °F 33 °F  
Max Temperature 58 °F 39 °F 64 °F (2012)
Min Temperature 40 °F 27 °F 0 °F (2002)
Degree Days  
Heating Degree Days 16 32  
Month to date heating degree days 104 127  
Since 1 July heating degree days 1461 1454  
Cooling Degree Days 0 0  
Month to date cooling degree days 0 0  
Year to date cooling degree days 725 675  
Moisture  
Dew Point 45 °F    
Average Humidity 88    
Maximum Humidity 96    
Minimum Humidity 80    
Precipitation  
Precipitation 0.01 in 0.08 in 0.63 in (1951)
Month to date precipitation 0.10 0.33  
Year to date precipitation 38.07 34.09  
Sea Level Pressure  
Sea Level Pressure 29.75 in    
Wind  
Wind Speed 8 mph (SSE)    
Max Wind Speed 18 mph    
Max Gust Speed 25 mph    
Visibility 3 miles    
Events Fog , Rain    
T = Trace of Precipitation, MM = Missing Value Source: NWS Daily Summary

Daily Weather History Graph

Daily Weather History Graph

Search for Another Location

Airport or City:

Trip Planner

Search our weather history database for the weather conditions in past years. The results will help you decide how hot, cold, wet, or windy it might be!

Date:

Astronomy

Dec. 04, 2013 Rise Set
Actual Time 7:54 AM EST 5:10 PM EST
Civil Twilight 7:23 AM EST 5:41 PM EST
Nautical Twilight 6:48 AM EST 6:16 PM EST
Astronomical Twilight 6:14 AM EST 6:50 PM EST
Moon 9:21 AM EST (12/4) 7:20 PM EST (12/4)
Length of Visible Light 10h 18m
Length of Day
9h 15m
Waxing Crescent, 4% of the Moon is Illuminated
Dec 4
Waxing Crescent
Dec 9
First Quarter
Dec 17
Full
Dec 25
Last Quarter
Jan 1
New

Hourly Weather History & Observations

Time (EST) Temp. Windchill Dew Point Humidity Pressure Visibility Wind Dir Wind Speed Gust Speed Precip Events Conditions
12:03 AM 44.6 °F - 42.8 °F 93% 29.81 in 3.0 mi Calm Calm - N/A   Overcast
12:23 AM 44.6 °F 43.1 °F 42.8 °F 93% 29.78 in 3.0 mi SSE 3.5 mph - N/A   Overcast
12:51 AM 44.6 °F 42.2 °F 42.8 °F 93% 29.79 in 2.5 mi SSE 4.6 mph - N/A   Overcast
12:53 AM 44.1 °F 40.8 °F 42.1 °F 93% 29.81 in 2.5 mi South 5.8 mph - N/A   Overcast
1:28 AM 42.8 °F 40.1 °F 41.0 °F 93% 29.77 in 2.5 mi SSE 4.6 mph - N/A   Mostly Cloudy
1:53 AM 43.0 °F 40.3 °F 41.0 °F 93% 29.81 in 2.0 mi SSE 4.6 mph - N/A   Mostly Cloudy
2:30 AM 42.8 °F - 41.0 °F 93% 29.80 in 2.0 mi Calm Calm - N/A   Scattered Clouds
2:37 AM 41.0 °F 39.0 °F 39.2 °F 93% 29.80 in 1.8 mi SSE 3.5 mph - N/A   Mostly Cloudy
2:53 AM 42.1 °F 40.2 °F 41.0 °F 96% 29.83 in 2.0 mi South 3.5 mph - N/A   Overcast
3:02 AM 42.8 °F 41.1 °F 41.0 °F 93% 29.82 in 2.0 mi South 3.5 mph - N/A   Overcast
3:12 AM 42.8 °F 41.1 °F 41.0 °F 93% 29.81 in 2.0 mi SSE 3.5 mph - N/A   Mostly Cloudy
3:49 AM 42.8 °F 41.1 °F 39.2 °F 87% 29.80 in 1.8 mi SE 3.5 mph - N/A   Mostly Cloudy
3:53 AM 42.1 °F 40.2 °F 39.9 °F 92% 29.82 in 1.8 mi SE 3.5 mph - N/A   Mostly Cloudy
4:01 AM 42.8 °F - 39.2 °F 87% 29.80 in 1.5 mi Calm Calm - N/A   Scattered Clouds
4:22 AM 41.0 °F - 39.2 °F 93% 29.80 in 0.5 mi Calm Calm - N/A Fog Fog
4:53 AM 41.0 °F - 39.9 °F 96% 29.83 in 0.8 mi Calm Calm - N/A   Overcast
5:00 AM 42.8 °F - 41.0 °F 93% 29.81 in 2.0 mi Calm Calm - N/A   Overcast
5:20 AM 42.8 °F 41.1 °F 39.2 °F 87% 29.80 in 1.8 mi ESE 3.5 mph - N/A   Mostly Cloudy
5:53 AM 42.1 °F 40.2 °F 41.0 °F 96% 29.83 in 2.0 mi SSE 3.5 mph - N/A   Mostly Cloudy
6:53 AM 44.1 °F 41.5 °F 42.1 °F 93% 29.83 in 2.0 mi SE 4.6 mph - N/A   Overcast
6:56 AM 44.6 °F 42.2 °F 42.8 °F 93% 29.81 in 3.0 mi SE 4.6 mph - N/A   Overcast
7:53 AM 44.1 °F 40.1 °F 42.1 °F 93% 29.83 in 1.8 mi SSE 6.9 mph - N/A   Overcast
8:20 AM 44.6 °F 41.4 °F 42.8 °F 93% 29.82 in 1.0 mi SSE 5.8 mph - N/A   Overcast
8:53 AM 45.0 °F 41.2 °F 42.1 °F 90% 29.83 in 1.0 mi SE 6.9 mph - N/A   Overcast
9:53 AM 46.4 °F 41.1 °F 44.6 °F 93% 29.80 in 0.8 mi SE 11.5 mph - N/A   Overcast
10:27 AM 46.4 °F 42.9 °F 44.6 °F 93% 29.79 in 0.1 mi SE 6.9 mph - N/A Fog Fog
10:53 AM 46.4 °F 42.9 °F 44.6 °F 93% 29.79 in 0.2 mi SE 6.9 mph - N/A Fog Fog
11:03 AM 46.4 °F 42.4 °F 46.4 °F 100% 29.78 in 0.5 mi SE 8.1 mph - N/A Fog Fog
11:33 AM 48.2 °F - 46.4 °F 93% 29.76 in 1.0 mi SSE 8.1 mph 16.1 mph N/A   Overcast
11:53 AM 48.2 °F - 46.4 °F 93% 29.75 in 1.0 mi SE 10.4 mph 17.3 mph N/A   Overcast
12:53 PM 48.2 °F - 46.4 °F 93% 29.73 in 1.5 mi SSE 6.9 mph - N/A   Overcast
1:53 PM 50.0 °F - 46.4 °F 87% 29.71 in 1.5 mi SSE 5.8 mph - N/A   Overcast
2:53 PM 51.8 °F - 48.2 °F 88% 29.67 in 1.5 mi SE 10.4 mph - N/A   Overcast
3:53 PM 51.1 °F - 48.0 °F 89% 29.65 in 1.5 mi SE 6.9 mph - N/A   Overcast
4:53 PM 52.0 °F - 50.0 °F 93% 29.65 in 1.0 mi SSE 6.9 mph 16.1 mph 0.00 in Rain Light Rain
5:53 PM 53.1 °F - 51.1 °F 93% 29.63 in 2.0 mi SSE 9.2 mph - 0.00 in Rain Light Rain
6:53 PM 54.0 °F - 52.0 °F 93% 29.63 in 2.0 mi SSE 9.2 mph - 0.01 in   Overcast
7:47 PM 55.4 °F - 53.6 °F 94% 29.60 in 6.0 mi South 11.5 mph 17.3 mph N/A   Overcast
7:53 PM 55.9 °F - 53.1 °F 90% 29.62 in 6.0 mi South 10.4 mph - N/A   Overcast
8:53 PM 57.0 °F - 54.0 °F 89% 29.60 in 7.0 mi South 16.1 mph 23.0 mph N/A   Overcast
9:17 PM 57.2 °F - 53.6 °F 88% 29.59 in 8.0 mi South 16.1 mph 25.3 mph N/A   Overcast
9:53 PM 57.9 °F - 54.0 °F 87% 29.60 in 7.0 mi SSW 12.7 mph - 0.00 in   Overcast
10:18 PM 57.2 °F - 53.6 °F 88% 29.59 in 8.0 mi SW 13.8 mph - N/A   Mostly Cloudy
10:53 PM 57.9 °F - 52.0 °F 81% 29.61 in 9.0 mi SSW 12.7 mph 19.6 mph N/A   Clear
11:53 PM 57.9 °F - 53.1 °F 84% 29.61 in 9.0 mi SW 11.5 mph - N/A   Overcast